Cambridge, MN

8:57 PM CDT on August 27, 2016 (GMT -0500)
Cambridge Municipal

Weather History for KCBG - May, 2013

Change the Weather History Date:

Friday, May 17, 2013

  Actual Average Record
Temperature  
Mean Temperature 60 °F -  
Max Temperature 66 °F 70 °F 98 °F (1972)
Min Temperature 55 °F 46 °F 28 °F (1993)
Degree Days  
Heating Degree Days 4    
Growing Degree Days 10 (Base 50)    
Moisture  
Dew Point 51 °F    
Average Humidity 74    
Maximum Humidity 94    
Minimum Humidity 52    
Precipitation  
Precipitation 0.00 in - - ()
Sea Level Pressure  
Sea Level Pressure 29.97 in    
Wind  
Wind Speed 7 mph (East)    
Max Wind Speed 13 mph    
Max Gust Speed 18 mph    
Visibility 10 miles    
Events Rain    
Averages and records for this station are not official NWS values.
T = Trace of Precipitation, MM = Missing Value Source: NWS Daily Summary

Daily Weather History Graph

Daily Weather History Graph

Search for Another Location

Airport or City:

Trip Planner

Search our weather history database for the weather conditions in past years. The results will help you decide how hot, cold, wet, or windy it might be!

Date:

Astronomy

May. 17, 2013 Rise Set
Actual Time 5:39 AM CDT 8:39 PM CDT
Civil Twilight 5:04 AM CDT 9:15 PM CDT
Nautical Twilight 4:19 AM CDT 10:00 PM CDT
Astronomical Twilight 3:26 AM CDT 10:54 PM CDT
Moon 12:21 PM CDT (5/17) 1:24 AM CDT (5/17)
Length of Visible Light 16h 10m
Length of Day
15h 00m
Waxing Crescent, 45% of the Moon is Illuminated
May 17
Waxing Crescent
May 17
First Quarter
May 24
Full
May 31
Last Quarter
Jun 8
New

Hourly Weather History & Observations

Time (CDT) Temp. Dew Point Humidity Pressure Visibility Wind Dir Wind Speed Gust Speed Precip Events Conditions
12:15 AM 66.2 °F 48.2 °F 52% 29.92 in 10.0 mi East 6.9 mph - N/A   Scattered Clouds
12:35 AM 66.2 °F 48.2 °F 52% 29.92 in 10.0 mi East 8.1 mph - N/A   Mostly Cloudy
12:55 AM 66.2 °F 48.2 °F 52% 29.93 in 10.0 mi East 8.1 mph - N/A   Mostly Cloudy
1:15 AM 64.4 °F 48.2 °F 56% 29.92 in 10.0 mi East 6.9 mph - N/A Rain Light Rain
1:34 AM 64.4 °F 48.2 °F 56% 29.92 in 10.0 mi East 4.6 mph - N/A   Scattered Clouds
1:55 AM 64.4 °F 48.2 °F 56% 29.92 in 10.0 mi Calm Calm - N/A   Scattered Clouds
2:15 AM 64.4 °F 48.2 °F 56% 29.92 in 10.0 mi Calm Calm - N/A   Clear
2:34 AM 62.6 °F 48.2 °F 59% 29.92 in 10.0 mi NE 4.6 mph - N/A   Clear
2:55 AM 60.8 °F 46.4 °F 59% 29.92 in 10.0 mi NE 4.6 mph - N/A   Clear
3:14 AM 60.8 °F 46.4 °F 59% 29.92 in 10.0 mi NE 3.5 mph - N/A Rain Light Rain
3:35 AM 60.8 °F 46.4 °F 59% 29.92 in 10.0 mi NE 5.8 mph - N/A   Scattered Clouds
3:54 AM 60.8 °F 46.4 °F 59% 29.92 in 10.0 mi NE 4.6 mph - N/A   Scattered Clouds
4:15 AM 60.8 °F 46.4 °F 59% 29.92 in 10.0 mi NE 3.5 mph - N/A   Mostly Cloudy
4:34 AM 59.0 °F 46.4 °F 63% 29.92 in 10.0 mi NE 5.8 mph - N/A   Overcast
4:55 AM 59.0 °F 46.4 °F 63% 29.93 in 10.0 mi Calm Calm - N/A   Overcast
5:15 AM 59.0 °F 46.4 °F 63% 29.95 in 10.0 mi Calm Calm - N/A   Overcast
5:34 AM 59.0 °F 48.2 °F 67% 29.95 in 10.0 mi East 5.8 mph - N/A Rain Light Rain
5:55 AM 60.8 °F 50.0 °F 68% 29.96 in 10.0 mi East 9.2 mph 18.4 mph N/A   Overcast
6:15 AM 59.0 °F 50.0 °F 72% 29.96 in 10.0 mi East 10.4 mph 16.1 mph N/A   Overcast
6:35 AM 59.0 °F 50.0 °F 72% 29.96 in 10.0 mi East 9.2 mph - N/A   Overcast
7:15 AM 57.2 °F 50.0 °F 77% 29.96 in 10.0 mi East 10.4 mph 16.1 mph N/A   Overcast
7:34 AM 57.2 °F 48.2 °F 72% 29.97 in 10.0 mi East 11.5 mph 17.3 mph N/A   Mostly Cloudy
7:55 AM 57.2 °F 48.2 °F 72% 29.98 in 10.0 mi East 10.4 mph - N/A   Overcast
8:14 AM 57.2 °F 48.2 °F 72% 29.98 in 10.0 mi ESE 9.2 mph - N/A   Overcast
8:35 AM 57.2 °F 48.2 °F 72% 29.98 in 10.0 mi East 6.9 mph - N/A   Mostly Cloudy
8:54 AM 60.8 °F 50.0 °F 68% 29.98 in 10.0 mi East 8.1 mph - N/A   Scattered Clouds
9:15 AM 59.0 °F 50.0 °F 72% 29.98 in 10.0 mi East 9.2 mph - N/A   Mostly Cloudy
9:34 AM 59.0 °F 50.0 °F 72% 29.99 in 10.0 mi East 5.8 mph - N/A   Scattered Clouds
9:55 AM 60.8 °F 50.0 °F 68% 29.99 in 10.0 mi East 9.2 mph - N/A   Scattered Clouds
10:14 AM 60.8 °F 51.8 °F 72% 29.99 in 10.0 mi East 6.9 mph - N/A   Mostly Cloudy
10:35 AM 60.8 °F 51.8 °F 72% 29.99 in 10.0 mi ENE 5.8 mph - N/A   Overcast
10:55 AM 62.6 °F 53.6 °F 72% 29.99 in 10.0 mi ESE 9.2 mph - N/A   Overcast
11:14 AM 62.6 °F 51.8 °F 68% 29.99 in 10.0 mi East 11.5 mph - N/A   Overcast
11:35 AM 62.6 °F 53.6 °F 72% 29.99 in 10.0 mi East 11.5 mph 16.1 mph N/A   Overcast
11:55 AM 62.6 °F 53.6 °F 72% 29.99 in 10.0 mi ESE 10.4 mph 17.3 mph N/A   Overcast
12:15 PM 62.6 °F 53.6 °F 72% 29.99 in 10.0 mi ESE 10.4 mph - N/A   Overcast
12:34 PM 62.6 °F 53.6 °F 72% 29.99 in 10.0 mi East 9.2 mph - N/A   Overcast
12:55 PM 62.6 °F 53.6 °F 72% 29.99 in 10.0 mi ESE 10.4 mph 16.1 mph N/A   Overcast
1:15 PM 62.6 °F 53.6 °F 72% 29.99 in 10.0 mi ESE 9.2 mph - N/A   Overcast
1:34 PM 62.6 °F 55.4 °F 77% 29.99 in 10.0 mi ESE 12.7 mph 17.3 mph N/A   Overcast
2:14 PM 62.6 °F 55.4 °F 77% 29.99 in 10.0 mi ESE 8.1 mph - N/A   Overcast
2:35 PM 62.6 °F 53.6 °F 72% 29.99 in 10.0 mi SE 9.2 mph - N/A   Overcast
2:54 PM 62.6 °F 53.6 °F 72% 29.99 in 10.0 mi ESE 8.1 mph - N/A   Overcast
3:15 PM 60.8 °F 53.6 °F 77% 29.99 in 10.0 mi ESE 8.1 mph - N/A Rain Light Rain
3:35 PM 60.8 °F 55.4 °F 82% 29.98 in 10.0 mi ESE 6.9 mph - N/A Rain Light Rain
3:54 PM 60.8 °F 55.4 °F 82% 29.98 in 10.0 mi ESE 5.8 mph - N/A   Overcast
4:15 PM 59.0 °F 53.6 °F 82% 29.99 in 10.0 mi ESE 10.4 mph - N/A   Overcast
4:35 PM 59.0 °F 53.6 °F 82% 29.99 in 7.0 mi ESE 10.4 mph - N/A Rain Light Rain
4:54 PM 57.2 °F 53.6 °F 88% 29.98 in 10.0 mi ESE 6.9 mph - N/A Rain Rain
5:15 PM 57.2 °F 53.6 °F 88% 29.98 in 10.0 mi ESE 10.4 mph 16.1 mph N/A   Drizzle
5:35 PM 57.2 °F 53.6 °F 88% 29.98 in 10.0 mi East 5.8 mph - N/A Rain Light Rain
5:54 PM 57.2 °F 53.6 °F 88% 29.98 in 10.0 mi East 8.1 mph - N/A   Overcast
6:15 PM 57.2 °F 53.6 °F 88% 29.97 in 10.0 mi ESE 8.1 mph - N/A   Overcast
6:35 PM 57.2 °F 53.6 °F 88% 29.97 in 10.0 mi East 8.1 mph - N/A   Overcast
6:55 PM 57.2 °F 53.6 °F 88% 29.97 in 10.0 mi East 8.1 mph - N/A   Overcast
7:14 PM 57.2 °F 53.6 °F 88% 29.97 in 10.0 mi East 6.9 mph - N/A   Overcast
7:35 PM 57.2 °F 53.6 °F 88% 29.97 in 10.0 mi East 5.8 mph 16.1 mph N/A   Overcast
7:55 PM 57.2 °F 53.6 °F 88% 29.96 in 10.0 mi East 8.1 mph - N/A   Overcast
8:14 PM 57.2 °F 53.6 °F 88% 29.96 in 10.0 mi East 5.8 mph - N/A   Overcast
8:35 PM 57.2 °F 53.6 °F 88% 29.96 in 10.0 mi East 10.4 mph - N/A   Overcast
8:55 PM 57.2 °F 53.6 °F 88% 29.97 in 10.0 mi East 6.9 mph - N/A   Overcast
9:14 PM 57.2 °F 53.6 °F 88% 29.97 in 10.0 mi East 9.2 mph - N/A   Overcast
9:35 PM 57.2 °F 53.6 °F 88% 29.97 in 10.0 mi ESE 11.5 mph - N/A   Overcast
9:54 PM 55.4 °F 53.6 °F 94% 29.97 in 10.0 mi East 10.4 mph 16.1 mph N/A   Overcast
10:15 PM 55.4 °F 51.8 °F 88% 29.97 in 10.0 mi East 9.2 mph - N/A   Overcast
10:35 PM 55.4 °F 51.8 °F 88% 29.98 in 10.0 mi ESE 5.8 mph - N/A   Overcast
10:54 PM 55.4 °F 51.8 °F 88% 29.98 in 10.0 mi ESE 8.1 mph - N/A   Overcast
11:15 PM 55.4 °F 51.8 °F 88% 29.97 in 10.0 mi ESE 10.4 mph 17.3 mph N/A   Overcast
11:35 PM 55.4 °F 51.8 °F 88% 29.98 in 10.0 mi ESE 8.1 mph - N/A   Overcast
11:54 PM 55.4 °F 51.8 °F 88% 29.98 in 10.0 mi East 8.1 mph - N/A   Overcast